Wind_Speed
18 25 24 22 20 17 15 12 10 8 6 6 7 8 9 9 13 15 17 18 16 14 10 9 7 8 9 11 14 16 16 17 17 16 16 16 19 19 17 17 12 13 14
24 27 25 23 20 18 15 12 10 8 6 6 8 10 12 13 14 14 13 12 8 5 4 7 9 11 12 15 17 17 18 18 19 20 21 19 20 20 18 17 17 15 13
24 26 26 23 21 18 15 12 10 8 7 8 9 12 13 15 15 14 11 8 7 7 9 11 13 15 17 17 18 19 19 21 22 21 19 12 16 19 18 18 17 16 14
24 25 24 24 20 18 15 12 10 8 7 9 10 12 16 18 17 15 13 12 12 12 13 15 17 17 17 17 18 18 19 20 21 20 16 13 13 16 15 17 16 16 15
22 24 23 24 21 17 14 11 9 7 8 9 11 12 14 16 16 15 15 15 15 16 17 17 17 17 17 17 17 18 19 20 21 13 11 11 9 12 11 11 14 16 15
21 23 23 22 21 18 15 12 10 9 10 10 11 13 10 12 14 15 15 17 17 17 17 17 17 17 16 16 16 17 18 18 14 14 11 11 13 12 9 7 7 7 8
20 25 22 22 20 17 15 13 12 9 11 8 11 14 13 9 11 13 14 16 16 16 16 16 16 15 14 15 14 14 14 17 10 11 10 11 13 12 11 9 7 5 4
20 19 22 21 19 17 14 14 13 12 10 9 12 14 16 11 9 11 13 14 15 15 15 15 15 14 14 13 13 12 12 16 9 11 10 12 12 12 12 11 10 8 7
21 19 21 22 20 17 15 14 13 12 11 14 15 14 14 14 10 9 10 12 12 12 12 12 12 12 11 11 11 10 11 13 9 10 7 10 11 12 12 12 12 11 10
24 18 20 19 20 19 17 14 14 10 11 13 12 12 13 15 12 11 10 10 9 10 10 10 10 9 9 8 8 8 9 12 6 8 4 9 10 11 12 12 12 12 12
19 21 21 20 19 17 14 17 14 11 11 8 6 8 10 12 13 9 10 9 8 7 7 7 7 6 5 5 5 5 7 6 4 4 3 6 8 9 11 12 12 12 11
22 22 22 18 19 18 17 16 13 14 11 7 6 7 9 8 10 9 8 8 7 7 6 5 5 4 3 2 1 2 6 1 1 2 4 5 6 7 8 10 10 11 10
23 25 21 20 18 19 19 15 14 10 8 8 8 8 9 11 15 16 11 10 8 6 4 3 2 2 2 3 4 2 3 3 1 2 5 5 6 6 6 7 8 9 8
21 21 24 17 23 19 16 16 16 13 10 9 9 10 10 9 10 10 9 8 9 6 5 4 0 4 3 4 4 3 4 4 2 3 8 6 7 7 6 6 7 8 8
24 19 20 21 18 17 18 18 15 13 13 9 10 10 9 9 10 11 11 9 7 6 4 4 6 6 5 5 5 4 5 4 5 4 4 7 7 7 7 8 7 8 9
21 25 19 22 20 19 19 17 18 18 12 11 9 10 11 9 10 11 11 11 10 10 8 8 6 6 7 6 6 6 5 5 5 5 4 8 8 8 8 8 8 9 9
19 20 23 25 25 21 21 17 18 17 15 13 10 10 11 10 11 11 10 11 10 8 8 8 9 10 7 8 7 6 7 6 7 6 6 5 9 9 9 9 9 9 11
16 17 18 23 24 27 21 20 19 18 16 13 11 11 12 12 12 12 11 11 10 10 10 9 8 7 8 7 6 6 7 7 6 6 8 9 9 9 13 11 10 11 11
18 17 17 19 21 23 26 23 20 18 17 13 13 12 12 11 12 12 11 9 11 12 11 10 9 9 7 8 8 8 8 9 9 9 10 9 10 11 11 13 13 13 13
18 17 18 20 17 17 20 24 25 22 18 16 16 15 12 11 13 13 11 10 11 12 12 12 10 11 10 8 9 11 11 12 13 13 10 9 9 11 10 9 11 12 12
20 17 17 21 20 18 18 21 25 24 22 20 17 17 14 12 12 13 12 11 13 13 12 12 12 14 14 12 13 14 13 13 14 13 12 9 9 13 12 12 12 13 12
23 21 20 17 18 19 16 16 19 20 20 19 20 18 17 16 16 15 15 15 15 15 16 16 16 16 16 14 12 8 9 8 12 11 9 12 11 12 15 15 14 14 13
24 23 22 21 17 18 18 16 18 18 15 15 16 16 18 19 18 20 19 18 19 19 19 19 20 20 19 17 18 13 6 7 8 11 14 13 15 18 17 17 17 16 15
22 22 22 24 23 20 18 16 16 13 14 14 11 14 15 14 18 22 22 24 23 23 24 24 23 22 22 23 23 21 21 19 12 12 14 14 17 18 21 19 16 14 14
20 22 19 18 19 21 17 21 12 13 13 13 10 13 17 20 21 18 21 24 28 24 24 24 25 24 24 22 22 22 21 19 20 21 23 20 20 18 15 15 16 16 15
16 19 22 19 21 19 19 20 14 15 15 14 11 15 18 18 28 26 24 25 29 26 24 24 25 26 25 25 24 22 24 21 17 20 20 18 16 17 18 19 18 17 17
Wind_Direction
158 169 166 163 158 154 151 147 140 129 112 87 83 85 91 117 132 126 116 117 120 117 107 95 85 74 74 77 85 95 97 98 97 86 75 70 68 62 65 69 75 75 71
157 165 164 163 160 157 155 151 143 131 108 94 92 93 90 112 129 144 137 128 125 119 105 97 90 87 88 92 93 94 96 96 92 85 69 75 64 59 67 68 68 68 69
154 161 163 164 162 160 158 154 145 132 115 108 104 97 92 106 112 123 134 137 130 118 107 103 97 95 95 96 97 96 98 100 92 80 84 56 63 59 65 68 66 60 64
154 158 162 164 164 162 158 153 145 134 121 112 109 106 99 104 103 104 110 114 116 111 105 103 101 98 98 98 97 99 100 98 81 66 75 58 46 70 59 59 60 60 67
157 155 171 163 165 164 160 154 145 131 119 114 114 111 104 102 98 96 102 108 109 109 106 104 103 102 99 98 98 103 103 87 70 66 76 89 62 73 81 81 78 69 65
158 157 176 164 163 166 161 157 150 141 135 128 126 117 108 107 102 97 100 108 110 108 106 105 106 105 102 103 104 98 100 87 82 71 60 61 66 65 65 68 64 63 71
159 172 171 166 168 166 164 162 154 149 147 147 150 138 131 118 109 103 102 109 112 112 109 109 109 110 106 105 108 105 95 92 81 74 67 64 65 64 62 60 55 37 15
165 173 173 168 173 170 163 165 163 158 162 167 163 157 148 137 129 117 110 114 119 119 117 115 114 113 111 108 105 102 97 85 74 72 53 57 61 59 56 56 53 50 43
170 176 166 170 175 174 168 176 168 168 173 151 148 148 158 149 152 141 125 121 125 126 122 116 109 106 101 98 96 96 92 95 88 83 68 48 54 51 47 45 43 42 40
168 162 165 170 175 176 179 181 176 179 166 157 131 149 162 169 160 162 149 134 128 128 132 128 120 112 106 107 101 96 92 76 66 63 40 49 51 48 45 41 40 41 37
172 161 168 177 171 176 180 185 179 179 177 173 169 154 154 170 178 167 163 151 146 137 130 128 127 125 119 107 96 87 85 83 77 81 321 29 37 39 37 35 33 32 30
179 172 173 173 173 176 188 192 186 185 188 184 193 171 136 168 172 173 184 168 165 169 152 138 131 127 116 35 47 90 69 99 97 73 288 4 10 21 26 26 27 27 25
179 181 177 184 174 184 186 185 184 180 184 184 182 164 170 170 189 181 195 185 190 191 192 198 178 143 163 187 222 215 186 218 246 328 300 345 353 352 6 10 12 15 14
186 188 179 184 180 182 184 180 188 165 192 192 191 180 181 175 178 179 186 204 205 203 207 149 97 237 236 233 229 231 233 235 251 262 289 322 334 333 335 342 348 356 358
187 188 188 190 183 191 184 181 191 180 195 200 194 190 186 184 179 182 182 188 187 216 238 222 219 231 240 249 254 246 245 239 255 259 269 308 319 320 314 313 327 339 343
195 197 197 196 195 195 198 190 192 190 196 202 199 196 194 190 185 186 188 193 194 201 206 213 223 227 234 238 244 264 259 256 248 260 264 292 308 311 305 301 305 314 323
204 204 208 207 204 196 200 203 192 195 198 199 201 203 203 200 194 200 196 208 206 209 207 221 224 227 232 239 238 239 252 238 260 277 280 276 289 305 302 300 296 290 298
196 203 206 206 209 206 206 201 201 209 198 201 208 210 216 216 215 217 213 215 212 213 221 223 224 230 231 238 241 242 256 267 258 264 270 290 297 295 301 296 290 286 282
190 198 206 209 211 211 212 208 205 205 205 206 212 216 225 216 219 219 221 220 217 222 227 227 228 224 233 238 244 247 257 267 272 272 273 278 285 296 289 284 290 282 280
187 199 208 208 209 215 215 214 211 203 208 203 212 214 212 221 224 221 215 217 222 229 233 237 230 239 238 242 250 265 268 271 269 273 273 279 275 279 303 290 288 299 286
198 193 200 205 214 216 213 214 216 211 209 206 212 215 213 219 227 227 222 224 227 231 235 237 242 242 255 255 260 273 287 282 278 271 278 278 262 277 299 287 291 295 288
200 202 200 206 211 219 216 215 219 222 222 230 230 231 233 231 231 238 236 232 231 238 237 239 245 253 256 255 257 259 274 277 263 284 239 254 255 269 295 285 291 290 278
198 197 200 196 205 216 214 217 221 214 217 235 243 251 252 250 249 247 246 249 251 253 256 255 256 257 256 260 255 242 240 254 255 257 269 278 275 282 291 285 291 283 284
191 194 197 198 209 214 209 214 214 217 224 236 236 261 261 278 258 259 262 259 256 257 257 259 260 261 260 256 260 258 252 252 259 273 277 283 282 277 291 282 284 284 283
182 183 190 189 200 207 217 219 223 227 222 244 242 255 277 288 283 273 269 275 265 256 257 257 257 258 258 257 250 260 263 259 261 266 275 276 278 284 278 282 281 281 286
194 202 193 190 196 222 227 237 240 241 241 251 249 275 285 278 273 274 266 260 262 261 261 261 258 259 256 255 255 252 256 263 265 261 261 264 262 269 277 281 284 284 286
Height
1517 1518 1522 1526 1530 1533 1536 1538 1540 1542 1542 1543 1543 1543 1543 1544 1545 1547 1548 1549 1550 1551 1552 1553 1554 1555 1555 1556 1556 1556 1557 1558 1559 1560 1560 1560 1559 1559 1558 1558 1559 1559 1558
1516 1518 1522 1526 1530 1534 1537 1539 1541 1543 1544 1545 1545 1545 1544 1545 1546 1548 1550 1551 1553 1553 1554 1554 1555 1556 1557 1558 1558 1559 1559 1561 1562 1563 1563 1563 1562 1562 1561 1561 1561 1561 1561
1517 1519 1523 1528 1531 1534 1538 1541 1543 1544 1546 1547 1547 1547 1547 1547 1548 1550 1551 1552 1554 1555 1555 1556 1557 1558 1559 1560 1561 1562 1563 1564 1565 1566 1567 1567 1565 1565 1565 1564 1564 1564 1563
1519 1522 1525 1529 1532 1535 1539 1542 1544 1546 1547 1549 1549 1550 1550 1550 1551 1552 1553 1554 1555 1556 1557 1559 1560 1561 1562 1563 1564 1565 1566 1568 1568 1568 1570 1570 1568 1567 1568 1567 1567 1566 1565
1521 1524 1527 1530 1533 1537 1539 1543 1545 1547 1549 1551 1552 1552 1553 1554 1554 1555 1556 1557 1558 1559 1560 1561 1562 1563 1565 1566 1567 1567 1569 1571 1572 1573 1571 1571 1570 1569 1569 1569 1568 1568 1568
1522 1527 1528 1532 1534 1538 1541 1544 1546 1548 1551 1553 1554 1555 1556 1556 1557 1558 1559 1559 1560 1562 1562 1564 1565 1566 1567 1568 1569 1570 1571 1572 1574 1575 1575 1572 1571 1571 1571 1571 1570 1570 1570
1525 1525 1529 1533 1537 1540 1542 1545 1547 1550 1552 1554 1555 1556 1558 1559 1560 1560 1561 1562 1563 1564 1565 1566 1567 1569 1570 1571 1571 1573 1574 1575 1577 1577 1575 1574 1573 1573 1573 1572 1571 1571 1571
1526 1527 1530 1534 1539 1541 1544 1546 1549 1551 1553 1553 1555 1557 1559 1560 1562 1563 1563 1564 1566 1566 1567 1568 1569 1571 1572 1573 1573 1575 1576 1576 1579 1578 1577 1576 1575 1575 1574 1574 1573 1572 1571
1526 1528 1531 1534 1539 1543 1546 1548 1550 1552 1553 1554 1555 1558 1561 1562 1563 1565 1566 1567 1568 1569 1570 1571 1572 1573 1574 1575 1576 1577 1577 1578 1580 1580 1581 1578 1577 1577 1576 1575 1575 1574 1573
1525 1530 1533 1537 1539 1543 1546 1549 1552 1554 1555 1556 1557 1559 1560 1563 1564 1565 1567 1568 1570 1570 1572 1573 1573 1575 1575 1577 1577 1578 1579 1580 1582 1582 1580 1579 1578 1578 1577 1576 1576 1574 1574
1527 1530 1534 1537 1540 1544 1547 1549 1552 1554 1556 1557 1558 1559 1561 1563 1565 1567 1567 1569 1571 1572 1573 1574 1574 1575 1577 1578 1579 1580 1580 1583 1583 1583 1581 1580 1580 1579 1578 1577 1576 1575 1575
1526 1529 1533 1538 1541 1544 1547 1550 1553 1554 1556 1558 1559 1561 1562 1566 1567 1570 1568 1570 1571 1572 1573 1575 1576 1576 1578 1579 1579 1580 1581 1583 1583 1582 1581 1580 1580 1580 1579 1578 1577 1576 1576
1525 1529 1533 1537 1541 1543 1545 1550 1553 1556 1559 1561 1561 1562 1566 1567 1567 1568 1569 1570 1572 1573 1574 1575 1576 1577 1579 1580 1581 1582 1582 1584 1584 1583 1581 1580 1580 1580 1580 1579 1578 1576 1576
1524 1528 1532 1536 1539 1542 1546 1549 1551 1556 1560 1561 1562 1563 1565 1566 1567 1569 1571 1571 1573 1574 1574 1577 1579 1580 1579 1579 1581 1581 1581 1582 1582 1582 1580 1580 1580 1579 1579 1578 1577 1577 1576
1523 1528 1531 1535 1537 1541 1544 1547 1551 1555 1558 1561 1561 1563 1565 1566 1568 1570 1572 1573 1575 1576 1576 1578 1579 1580 1579 1580 1579 1579 1579 1580 1581 1581 1581 1579 1579 1579 1578 1577 1577 1576 1576
1521 1526 1530 1533 1537 1540 1542 1546 1550 1553 1557 1560 1560 1561 1563 1566 1568 1569 1571 1572 1573 1574 1576 1577 1578 1578 1579 1579 1580 1578 1578 1578 1579 1579 1579 1578 1578 1577 1577 1576 1575 1575 1575
1518 1523 1526 1530 1535 1538 1541 1544 1548 1551 1555 1557 1559 1561 1562 1564 1565 1567 1570 1570 1571 1572 1574 1575 1576 1576 1577 1577 1577 1578 1578 1578 1578 1577 1577 1577 1577 1576 1576 1575 1575 1574 1573
1518 1520 1524 1527 1531 1536 1539 1543 1546 1549 1553 1555 1558 1559 1560 1561 1563 1564 1566 1567 1569 1570 1571 1573 1573 1574 1575 1576 1576 1577 1576 1576 1576 1577 1577 1575 1575 1575 1574 1574 1573 1573 1572
1516 1519 1523 1525 1528 1532 1536 1539 1543 1548 1550 1554 1556 1558 1559 1560 1561 1562 1564 1565 1567 1568 1569 1570 1572 1573 1574 1574 1574 1575 1575 1575 1575 1575 1575 1574 1574 1573 1573 1571 1571 1571 1570
1512 1517 1519 1523 1526 1529 1532 1536 1539 1543 1546 1550 1552 1555 1557 1558 1559 1560 1562 1563 1565 1566 1567 1569 1570 1570 1571 1572 1572 1572 1572 1573 1573 1573 1573 1573 1572 1571 1570 1570 1569 1569 1568
1508 1513 1518 1519 1523 1526 1529 1531 1534 1538 1542 1545 1549 1551 1554 1555 1557 1557 1560 1562 1562 1563 1565 1566 1567 1568 1568 1570 1570 1570 1569 1569 1569 1569 1570 1570 1571 1568 1568 1567 1567 1567 1565
1504 1509 1514 1520 1521 1524 1527 1529 1532 1535 1539 1542 1545 1547 1550 1552 1554 1555 1556 1559 1560 1561 1562 1564 1564 1565 1566 1567 1567 1568 1567 1568 1566 1566 1567 1568 1567 1566 1565 1564 1564 1563 1563
1500 1505 1510 1516 1520 1522 1525 1527 1530 1532 1534 1539 1542 1544 1548 1549 1551 1552 1554 1557 1558 1558 1559 1560 1561 1562 1563 1563 1564 1565 1564 1564 1564 1564 1564 1564 1563 1562 1562 1561 1561 1560 1559
1497 1503 1507 1509 1516 1519 1522 1525 1527 1529 1531 1536 1537 1541 1544 1545 1547 1549 1552 1554 1555 1554 1554 1556 1557 1558 1559 1559 1559 1559 1559 1560 1560 1560 1560 1560 1560 1559 1558 1558 1557 1556 1556
1496 1500 1506 1506 1513 1518 1520 1524 1524 1527 1529 1533 1532 1536 1539 1539 1543 1547 1550 1551 1551 1549 1550 1550 1552 1553 1553 1554 1554 1554 1554 1555 1555 1556 1555 1557 1555 1555 1554 1554 1554 1553 1552
1493 1498 1501 1504 1508 1512 1518 1522 1520 1528 1526 1527 1527 1531 1534 1537 1539 1541 1543 1545 1545 1544 1544 1546 1546 1547 1548 1549 1549 1550 1550 1550 1550 1550 1550 1550 1552 1551 1551 1550 1550 1549 1549